Flag for U.S.A. Weather past 2 weeks in Mesquite, Texas, U.S.A.

Now
72 °F

Sunny.


Feels Like: 76 °F
Forecast: 37 / 68 °F
Wind: 9 mph from Southwest

Location: Mesquite Metro Airport

Current Time: Jan 26, 2015 at 5:25:17 PM

Latest Report: Jan 26, 2015 at 4:50 PM


Visibility: 10 mi

Pressure: 30.08 "Hg

Humidity: 27%

Dew point: 36 °F

Location of MesquiteLocation

Historic Weather in Mesquite — Graph

°F

Mesquite temperature yesterday

Maximum temperature yesterday: 63 °F (at 12:50 PM)
Minimum temperature yesterday: 36 °F (at 2:55 AM)
Average temperature yesterday: 47 °F

Past Weeks' High & Low Weather Summary

 TemperatureHumidityPressure
High70 °F (Jan 17, 2:50 PM)100% (Jan 12, 6:50 AM)30.51 "Hg (Jan 12, 6:50 AM)
Low28 °F (Jan 16, 7:50 AM)20% (Jan 18, 2:48 PM)29.93 "Hg (Jan 20, 3:35 AM)
Average44 °F70%30.20 "Hg
* Reported Jan 11 3:50 PM — Jan 26 3:50 PM, Mesquite, Weather by CustomWeather, © 2014

Note: Actual official high and low records may vary slightly from our data, if they occured in-between our weather recording intervals... More about our weather records

Advertising

Mesquite weather history for previous 24 hours

 ConditionsComfort  
Time TempWeatherWind HumidityBarometerVisibility
3:50 PM
Jan 26
70 °FSunny.9 mph27%30.08 "Hg10 mi
2:50 PM68 °FSunny.7 mph28%30.09 "Hg10 mi
1:50 PM66 °FSunny.9 mph30%30.12 "Hg10 mi
12:50 PM63 °FSunny.9 mph34%30.16 "Hg10 mi
11:50 AM59 °FSunny.7 mph39%30.21 "Hg10 mi
10:50 AM55 °FSunny.No wind44%30.23 "Hg10 mi
9:50 AM48 °FSunny.No wind58%30.24 "Hg10 mi
8:47 AM43 °FSunny.No wind66%30.22 "Hg10 mi
7:55 AM37 °FSunny.6 mph75%30.23 "Hg10 mi
6:47 AM34 °FClear.No wind81%30.22 "Hg10 mi
4:35 AM38 °FClear.No wind71%30.21 "Hg10 mi
4:15 AM40 °FClear.No wind63%30.21 "Hg10 mi
3:55 AM40 °FClear.No wind64%30.21 "Hg10 mi
3:35 AM36 °FClear.No wind72%30.21 "Hg10 mi
3:15 AM39 °FClear.No wind65%30.22 "Hg10 mi
2:55 AM40 °FClear.No wind64%30.21 "Hg10 mi
2:35 AM40 °FClear.3 mph66%30.21 "Hg10 mi
2:15 AM39 °FClear.6 mph68%30.21 "Hg10 mi
1:55 AM41 °FClear.6 mph64%30.21 "Hg10 mi
1:35 AM41 °FClear.6 mph64%30.21 "Hg10 mi
1:15 AM44 °FClear.5 mph55%30.20 "Hg10 mi
12:55 AM44 °FClear.7 mph53%30.20 "Hg10 mi
12:35 AM45 °FClear.7 mph52%30.21 "Hg10 mi
12:15 AM45 °FClear.7 mph53%30.20 "Hg10 mi
11:55 PM
Jan 25
46 °FClear.7 mph52%30.20 "Hg10 mi
11:35 PM47 °FClear.7 mph48%30.20 "Hg10 mi
11:15 PM47 °FClear.7 mph51%30.20 "Hg10 mi
10:55 PM48 °FClear.7 mph47%30.19 "Hg10 mi
10:35 PM49 °FClear.7 mph40%30.18 "Hg10 mi
10:15 PM48 °FClear.7 mph45%30.17 "Hg10 mi
9:55 PM49 °FClear.8 mph42%30.16 "Hg10 mi
9:15 PM51 °FClear.8 mph38%30.15 "Hg10 mi
8:55 PM52 °FClear.8 mph36%30.14 "Hg10 mi
7:50 PM52 °FClear.7 mph38%30.12 "Hg10 mi
6:50 PM54 °FClear.7 mph38%30.09 "Hg10 mi
5:50 PM59 °FSunny.12 mph27%30.07 "Hg10 mi
Weather by CustomWeather, © 2014

See weather overviewHow to use our weather pages